2006-01-01 01:00:00,-11.04
2006-01-01 04:00:00,-7.03
2006-01-01 07:00:00,-12.70
2006-01-01 10:00:00,-11.29
2006-01-01 13:00:00,-11.04
2006-01-01 16:00:00,-8.24
2006-01-01 19:00:00,-9.72
2006-01-01 22:00:00,-11.63
2006-01-02 01:00:00,-12.53
2006-01-02 04:00:00,-9.76
2006-01-02 07:00:00,-10.09
2006-01-02 10:00:00,-9.81
2006-01-02 13:00:00,-10.12
2006-01-02 16:00:00,-8.81
2006-01-02 19:00:00,-9.14
2006-01-02 22:00:00,-10.80
2006-01-03 01:00:00,-10.02
2006-01-03 04:00:00,-10.75
2006-01-03 07:00:00,-11.13
2006-01-03 10:00:00,-13.57
2006-01-03 13:00:00,-11.21
2006-01-03 16:00:00,-11.79
2006-01-03 19:00:00,-11.62
2006-01-03 22:00:00,-8.78
2006-01-04 01:00:00,-8.26
2006-01-04 04:00:00,-1.53
2006-01-04 07:00:00,-2.09
2006-01-04 10:00:00,-1.95
2006-01-04 13:00:00,-2.01
2006-01-04 16:00:00,-2.15
2006-01-04 19:00:00,-1.29
2006-01-04 22:00:00,-0.68
2006-01-05 01:00:00,0.62
2006-01-05 04:00:00,2.60
2006-01-05 07:00:00,2.65
2006-01-05 10:00:00,1.91
2006-01-05 13:00:00,3.82
2006-01-05 16:00:00,1.61
2006-01-05 19:00:00,2.78
2006-01-05 22:00:00,5.63
2006-01-06 01:00:00,-1.12
2006-01-06 04:00:00,-2.34
2006-01-06 07:00:00,-0.62
2006-01-06 10:00:00,-0.41
2006-01-06 13:00:00,0.43
2006-01-06 16:00:00,-0.45
2006-01-06 19:00:00,-1.26
2006-01-06 22:00:00,-4.06
2006-01-07 01:00:00,-2.36
2006-01-07 04:00:00,-1.76
2006-01-07 07:00:00,0.95
2006-01-07 10:00:00,-1.12
2006-01-07 13:00:00,-1.90
2006-01-07 16:00:00,-2.03
2006-01-07 19:00:00,-3.31
2006-01-07 22:00:00,-0.97
2006-01-08 01:00:00,-1.28
2006-01-08 04:00:00,-2.71
2006-01-08 07:00:00,-3.37
2006-01-08 10:00:00,-2.90
2006-01-08 13:00:00,-1.44
2006-01-08 16:00:00,-0.65
2006-01-08 19:00:00,-3.64
2006-01-08 22:00:00,-2.21
2006-01-09 01:00:00,-2.81
2006-01-09 04:00:00,-3.06
2006-01-09 07:00:00,-2.36
2006-01-09 10:00:00,-5.41
2006-01-09 13:00:00,-6.79
2006-01-09 16:00:00,-7.49
2006-01-09 19:00:00,-8.60
2006-01-09 22:00:00,-6.95
2006-01-10 01:00:00,-4.12
2006-01-10 04:00:00,-4.18
2006-01-10 07:00:00,-2.63
2006-01-10 10:00:00,-2.77
2006-01-10 13:00:00,-2.39
2006-01-10 16:00:00,-2.19
2006-01-10 19:00:00,-2.08
2006-01-10 22:00:00,-2.19
2006-01-11 01:00:00,-2.17
2006-01-11 04:00:00,-1.88
2006-01-11 07:00:00,-4.43
2006-01-11 10:00:00,-5.50
2006-01-11 13:00:00,-0.37
2006-01-11 16:00:00,-0.71
2006-01-11 19:00:00,-1.69
2006-01-11 22:00:00,-4.53
2006-01-12 01:00:00,-1.53
2006-01-12 04:00:00,-2.63
2006-01-12 07:00:00,0.04
2006-01-12 10:00:00,-0.67
2006-01-12 13:00:00,-2.16
2006-01-12 16:00:00,-3.11
2006-01-12 19:00:00,-4.43
2006-01-12 22:00:00,-1.49
2006-01-13 01:00:00,1.00
2006-01-13 04:00:00,-0.04
2006-01-13 07:00:00,-0.37
2006-01-13 10:00:00,-0.09
2006-01-13 13:00:00,-0.21
2006-01-13 16:00:00,-1.18
2006-01-13 19:00:00,-1.28
2006-01-13 22:00:00,-2.20
2006-01-14 01:00:00,-3.71
2006-01-14 04:00:00,-2.19
2006-01-14 07:00:00,-2.90
2006-01-14 10:00:00,0.47
2006-01-14 13:00:00,1.33
2006-01-14 16:00:00,0.39
2006-01-14 19:00:00,-0.54
2006-01-14 22:00:00,-2.65
2006-01-15 01:00:00,-2.96
2006-01-15 04:00:00,-6.49
2006-01-15 07:00:00,-6.02
2006-01-15 10:00:00,-5.94
2006-01-15 13:00:00,-9.52
2006-01-15 16:00:00,-8.64
2006-01-15 19:00:00,-8.76
2006-01-15 22:00:00,-5.96
2006-01-16 01:00:00,-4.84
2006-01-16 04:00:00,-5.76
2006-01-16 07:00:00,-5.88
2006-01-16 10:00:00,-7.27
2006-01-16 13:00:00,-7.52
2006-01-16 16:00:00,-8.54
2006-01-16 19:00:00,-8.94
2006-01-16 22:00:00,-9.48
2006-01-17 01:00:00,-9.31
2006-01-17 04:00:00,-8.11
2006-01-17 07:00:00,-8.13
2006-01-17 10:00:00,-9.60
2006-01-17 13:00:00,-11.54
2006-01-17 16:00:00,-12.41
2006-01-17 19:00:00,-13.61
2006-01-17 22:00:00,-15.30
2006-01-18 01:00:00,-15.05
2006-01-18 04:00:00,-16.70
2006-01-18 07:00:00,-16.19
2006-01-18 10:00:00,-17.01
2006-01-18 13:00:00,-19.10
2006-01-18 16:00:00,-22.29
2006-01-18 19:00:00,-23.72
2006-01-18 22:00:00,-22.35
2006-01-19 01:00:00,-23.35
2006-01-19 04:00:00,-23.51
2006-01-19 07:00:00,-23.93
2006-01-19 10:00:00,-23.35
2006-01-19 13:00:00,-24.25
2006-01-19 16:00:00,-23.31
2006-01-19 19:00:00,-23.59
2006-01-19 22:00:00,-24.30
2006-01-20 01:00:00,-22.52
2006-01-20 04:00:00,-23.43
2006-01-20 07:00:00,-23.90
2006-01-20 10:00:00,-23.10
2006-01-20 13:00:00,-22.77
2006-01-20 16:00:00,-22.40
2006-01-20 19:00:00,-21.95
2006-01-20 22:00:00,-22.05
2006-01-21 01:00:00,-21.86
2006-01-21 04:00:00,-21.82
2006-01-21 07:00:00,-21.08
2006-01-21 10:00:00,-20.07
2006-01-21 13:00:00,-20.13
2006-01-21 16:00:00,-20.07
2006-01-21 19:00:00,-20.78
2006-01-21 22:00:00,-19.76
2006-01-22 01:00:00,-17.65
2006-01-22 04:00:00,-16.75
2006-01-22 07:00:00,-13.94
2006-01-22 10:00:00,-14.56
2006-01-22 13:00:00,-8.43
2006-01-22 16:00:00,-2.03
2006-01-22 19:00:00,-1.34
2006-01-22 22:00:00,-0.95
2006-01-23 01:00:00,-0.73
2006-01-23 04:00:00,-2.08
2006-01-23 07:00:00,-2.98
2006-01-23 10:00:00,-2.94
2006-01-23 13:00:00,-3.90
2006-01-23 16:00:00,-4.02
2006-01-23 19:00:00,-3.94
2006-01-23 22:00:00,-4.18
2006-01-24 01:00:00,-4.20
2006-01-24 04:00:00,-6.05
2006-01-24 07:00:00,-5.92
2006-01-24 10:00:00,-6.05
2006-01-24 13:00:00,-5.59
2006-01-24 16:00:00,-4.89
2006-01-24 19:00:00,-5.34
2006-01-24 22:00:00,-5.68
2006-01-25 01:00:00,-6.22
2006-01-25 04:00:00,-5.21
2006-01-25 07:00:00,-7.64
2006-01-25 10:00:00,-4.34
2006-01-25 13:00:00,-4.83
2006-01-25 16:00:00,-5.34
2006-01-25 19:00:00,-4.01
2006-01-25 22:00:00,-3.15
2006-01-26 01:00:00,-0.95
2006-01-26 04:00:00,-0.19
2006-01-26 07:00:00,0.14
2006-01-26 10:00:00,0.45
2006-01-26 13:00:00,1.49
2006-01-26 16:00:00,0.14
2006-01-26 19:00:00,0.20
2006-01-26 22:00:00,-1.10
2006-01-27 01:00:00,-3.61
2006-01-27 04:00:00,-3.63
2006-01-27 07:00:00,-3.00
2006-01-27 10:00:00,-4.26
2006-01-27 13:00:00,-3.61
2006-01-27 16:00:00,-2.45
2006-01-27 19:00:00,-1.28
2006-01-27 22:00:00,-1.87
2006-01-28 01:00:00,-2.15
2006-01-28 04:00:00,-2.47
2006-01-28 07:00:00,-1.53
2006-01-28 10:00:00,-2.11
2006-01-28 13:00:00,-3.85
2006-01-28 16:00:00,-4.60
2006-01-28 19:00:00,-5.67
2006-01-28 22:00:00,-4.83
2006-01-29 01:00:00,-5.38
2006-01-29 04:00:00,-5.34
2006-01-29 07:00:00,-4.55
2006-01-29 10:00:00,-3.96
2006-01-29 13:00:00,-3.42
2006-01-29 16:00:00,-3.48
2006-01-29 19:00:00,-5.87
2006-01-29 22:00:00,-8.06
2006-01-30 01:00:00,-7.91
2006-01-30 04:00:00,-8.36
2006-01-30 07:00:00,-8.69
2006-01-30 10:00:00,-8.24
2006-01-30 13:00:00,-9.52
2006-01-30 16:00:00,-10.35
2006-01-30 19:00:00,-10.96
2006-01-30 22:00:00,-12.37
2006-01-31 01:00:00,-11.42
2006-01-31 04:00:00,-6.17
2006-01-31 07:00:00,-9.38
2006-01-31 10:00:00,-4.85
2006-01-31 13:00:00,-5.10
2006-01-31 16:00:00,-1.12
2006-01-31 19:00:00,-1.12
2006-01-31 22:00:00,-2.78
2006-02-01 01:00:00,-1.91
2006-02-01 04:00:00,-2.53
2006-02-01 07:00:00,-4.23
2006-02-01 10:00:00,-3.40
2006-02-01 13:00:00,-3.19
2006-02-01 16:00:00,-3.40
2006-02-01 19:00:00,-3.52
2006-02-01 22:00:00,-5.62
2006-02-02 01:00:00,-5.41
2006-02-02 04:00:00,-5.46
2006-02-02 07:00:00,-5.30
2006-02-02 10:00:00,-5.26
2006-02-02 13:00:00,-5.28
2006-02-02 16:00:00,-4.85
2006-02-02 19:00:00,-10.75
2006-02-02 22:00:00,-18.16
2006-02-03 01:00:00,-20.65
2006-02-03 04:00:00,-20.09
2006-02-03 07:00:00,-17.72
2006-02-03 10:00:00,-17.47
2006-02-03 13:00:00,-18.26
2006-02-03 16:00:00,-16.95
2006-02-03 19:00:00,-15.59
2006-02-03 22:00:00,-14.27
2006-02-04 01:00:00,-17.49
2006-02-04 04:00:00,-14.70
2006-02-04 07:00:00,-15.96
2006-02-04 10:00:00,-14.97
2006-02-04 13:00:00,-14.49
2006-02-04 16:00:00,-13.65
2006-02-04 19:00:00,-15.76
2006-02-04 22:00:00,-15.64
2006-02-05 01:00:00,-15.14
2006-02-05 04:00:00,-16.38
2006-02-05 07:00:00,-15.39
2006-02-05 10:00:00,-9.70
2006-02-05 13:00:00,-13.13
2006-02-05 16:00:00,-12.83
2006-02-05 19:00:00,-13.32
2006-02-05 22:00:00,-11.92
2006-02-06 01:00:00,-11.26
2006-02-06 04:00:00,-11.07
2006-02-06 07:00:00,-11.38
2006-02-06 10:00:00,-12.17
2006-02-06 13:00:00,-15.35
2006-02-06 16:00:00,-12.87
2006-02-06 19:00:00,-14.03
2006-02-06 22:00:00,-14.31
2006-02-07 01:00:00,-11.38
2006-02-07 04:00:00,-7.38
2006-02-07 07:00:00,-5.72
2006-02-07 10:00:00,-4.52
2006-02-07 13:00:00,-2.99
2006-02-07 16:00:00,-4.39
2006-02-07 19:00:00,-4.81
2006-02-07 22:00:00,-4.31
2006-02-08 01:00:00,-4.43
2006-02-08 04:00:00,-4.37
2006-02-08 07:00:00,-5.06
2006-02-08 10:00:00,-5.06
2006-02-08 13:00:00,-5.20
2006-02-08 16:00:00,-6.47
2006-02-08 19:00:00,-5.26
2006-02-08 22:00:00,-6.84
2006-02-09 01:00:00,-6.92
2006-02-09 04:00:00,-7.37
2006-02-09 07:00:00,-6.03
2006-02-09 10:00:00,-6.96
2006-02-09 13:00:00,-7.22
2006-02-09 16:00:00,-6.77
2006-02-09 19:00:00,-7.31
2006-02-09 22:00:00,-9.07
2006-02-10 01:00:00,-10.12
2006-02-10 04:00:00,-9.89
2006-02-10 07:00:00,-9.73
2006-02-10 10:00:00,-9.17
2006-02-10 13:00:00,-8.45
2006-02-10 16:00:00,-8.20
2006-02-10 19:00:00,-7.27
2006-02-10 22:00:00,-7.04
2006-02-11 01:00:00,-6.57
2006-02-11 04:00:00,-7.87
2006-02-11 07:00:00,-8.45
2006-02-11 10:00:00,-5.70
2006-02-11 13:00:00,-1.99
2006-02-11 16:00:00,-0.41
2006-02-11 19:00:00,-1.56
2006-02-11 22:00:00,-0.42
2006-02-12 01:00:00,-0.99
2006-02-12 04:00:00,-1.48
2006-02-12 07:00:00,-1.37
2006-02-12 10:00:00,-2.08
2006-02-12 13:00:00,-1.34
2006-02-12 16:00:00,-1.37
2006-02-12 19:00:00,-0.79
2006-02-12 22:00:00,-2.28
2006-02-13 01:00:00,-2.11
2006-02-13 04:00:00,-3.73
2006-02-13 07:00:00,-4.77
2006-02-13 10:00:00,-4.54
2006-02-13 13:00:00,-7.22
2006-02-13 16:00:00,-8.26
2006-02-13 19:00:00,-9.48
2006-02-13 22:00:00,-10.97
2006-02-14 01:00:00,-12.95
2006-02-14 04:00:00,-13.25
2006-02-14 07:00:00,-12.56
2006-02-14 10:00:00,-8.54
2006-02-14 13:00:00,-6.34
2006-02-14 16:00:00,-4.10
2006-02-14 19:00:00,-4.59
2006-02-14 22:00:00,-3.60
2006-02-15 01:00:00,-1.56
2006-02-15 04:00:00,-3.54
2006-02-15 07:00:00,-6.09
2006-02-15 10:00:00,-3.21
2006-02-15 13:00:00,-10.87
2006-02-15 16:00:00,-10.11
2006-02-15 19:00:00,-11.01
2006-02-15 22:00:00,-9.15
2006-02-16 01:00:00,-9.84
2006-02-16 04:00:00,-9.96
2006-02-16 07:00:00,-9.77
2006-02-16 10:00:00,-9.07
2006-02-16 13:00:00,-8.70
2006-02-16 16:00:00,-11.30
2006-02-16 19:00:00,-13.55
2006-02-16 22:00:00,-12.41
2006-02-17 01:00:00,-15.68
2006-02-17 04:00:00,-15.55
2006-02-17 07:00:00,-12.28
2006-02-17 10:00:00,-14.85
2006-02-17 13:00:00,-13.19
2006-02-17 16:00:00,-15.18
2006-02-17 19:00:00,-19.05
2006-02-17 22:00:00,-18.78
2006-02-18 01:00:00,-18.25
2006-02-18 04:00:00,-20.73
2006-02-18 07:00:00,-22.73
2006-02-18 10:00:00,-22.13
2006-02-18 13:00:00,-19.24
2006-02-18 16:00:00,-19.76
2006-02-18 19:00:00,-19.19
2006-02-18 22:00:00,-17.99
2006-02-19 01:00:00,-19.97
2006-02-19 04:00:00,-18.65
2006-02-19 07:00:00,-17.86
2006-02-19 10:00:00,-18.01
2006-02-19 13:00:00,-14.36
2006-02-19 16:00:00,-16.66
2006-02-19 19:00:00,-16.59
2006-02-19 22:00:00,-13.61
2006-02-20 01:00:00,-12.08
2006-02-20 04:00:00,-7.00
2006-02-20 07:00:00,-8.41
2006-02-20 10:00:00,-7.00
2006-02-20 13:00:00,-9.65
2006-02-20 16:00:00,-7.91
2006-02-20 19:00:00,-7.35
2006-02-20 22:00:00,-7.04
2006-02-21 01:00:00,-6.30
2006-02-21 04:00:00,-5.06
2006-02-21 07:00:00,-3.84
2006-02-21 10:00:00,-2.57
2006-02-21 13:00:00,-2.06
2006-02-21 16:00:00,-2.31
2006-02-21 19:00:00,-1.23
2006-02-21 22:00:00,-0.42
2006-02-22 01:00:00,-0.32
2006-02-22 04:00:00,0.22
2006-02-22 07:00:00,1.61
2006-02-22 10:00:00,4.68
2006-02-22 13:00:00,5.21
2006-02-22 16:00:00,2.52
2006-02-22 19:00:00,2.23
2006-02-22 22:00:00,0.55
2006-02-23 01:00:00,-0.37
2006-02-23 04:00:00,-3.06
2006-02-23 07:00:00,-5.21
2006-02-23 10:00:00,-4.33
2006-02-23 13:00:00,-4.90
2006-02-23 16:00:00,-3.47
2006-02-23 19:00:00,-1.12
2006-02-23 22:00:00,0.71
2006-02-24 01:00:00,0.76
2006-02-24 04:00:00,-0.21
2006-02-24 07:00:00,-1.58
2006-02-24 10:00:00,-4.42
2006-02-24 13:00:00,-6.55
2006-02-24 16:00:00,-7.70
2006-02-24 19:00:00,-8.07
2006-02-24 22:00:00,-8.65
2006-02-25 01:00:00,-9.48
2006-02-25 04:00:00,-10.39
2006-02-25 07:00:00,-10.60
2006-02-25 10:00:00,-11.49
2006-02-25 13:00:00,-11.49
2006-02-25 16:00:00,-11.83
2006-02-25 19:00:00,-11.84
2006-02-25 22:00:00,-12.06
2006-02-26 01:00:00,-11.55
2006-02-26 04:00:00,-11.55
2006-02-26 07:00:00,-12.17
2006-02-26 10:00:00,-11.26
2006-02-26 13:00:00,-11.64
2006-02-26 16:00:00,-12.58
2006-02-26 19:00:00,-13.12
2006-02-26 22:00:00,-12.54
2006-02-27 01:00:00,-12.87
2006-02-27 04:00:00,-12.70
2006-02-27 07:00:00,-12.15
2006-02-27 10:00:00,-11.36
2006-02-27 13:00:00,-11.84
2006-02-27 16:00:00,-12.45
2006-02-27 19:00:00,-13.90
2006-02-27 22:00:00,-13.84
2006-02-28 01:00:00,-14.33
2006-02-28 04:00:00,-17.82
2006-02-28 07:00:00,-16.39
2006-02-28 10:00:00,-17.00
2006-02-28 13:00:00,-14.44
2006-02-28 16:00:00,-16.45
2006-02-28 19:00:00,-17.82
2006-02-28 22:00:00,-16.42
2006-03-01 01:00:00,-17.45
2006-03-01 04:00:00,-18.33
2006-03-01 07:00:00,-17.87
2006-03-01 10:00:00,-15.99
2006-03-01 13:00:00,-16.42
2006-03-01 16:00:00,-17.09
2006-03-01 19:00:00,-17.12
2006-03-01 22:00:00,-16.46
2006-03-02 01:00:00,-18.71
2006-03-02 04:00:00,-18.51
2006-03-02 07:00:00,-16.97
2006-03-02 10:00:00,-16.49
2006-03-02 13:00:00,-15.83
2006-03-02 16:00:00,-16.64
2006-03-02 19:00:00,-17.08
2006-03-02 22:00:00,-19.39
2006-03-03 01:00:00,-18.24
2006-03-03 04:00:00,-19.68
2006-03-03 07:00:00,-18.40
2006-03-03 10:00:00,-16.85
2006-03-03 13:00:00,-14.75
2006-03-03 16:00:00,-15.92
2006-03-03 19:00:00,-18.32
2006-03-03 22:00:00,-17.91
2006-03-04 01:00:00,-14.93
2006-03-04 04:00:00,-18.11
2006-03-04 07:00:00,-15.83
2006-03-04 10:00:00,-14.22
2006-03-04 13:00:00,-17.76
2006-03-04 16:00:00,-16.31
2006-03-04 19:00:00,-17.70
2006-03-04 22:00:00,-17.16
2006-03-05 01:00:00,-17.97
2006-03-05 04:00:00,-16.17
2006-03-05 07:00:00,-18.69
2006-03-05 10:00:00,-17.10
2006-03-05 13:00:00,-17.83
2006-03-05 16:00:00,-19.22
2006-03-05 19:00:00,-19.64
2006-03-05 22:00:00,-21.91
2006-03-06 01:00:00,-18.53
2006-03-06 04:00:00,-19.85
2006-03-06 07:00:00,-17.02
2006-03-06 10:00:00,-14.45
2006-03-06 13:00:00,-12.81
2006-03-06 16:00:00,-11.25
2006-03-06 19:00:00,-12.87
2006-03-06 22:00:00,-15.43
2006-03-07 01:00:00,-13.37
2006-03-07 04:00:00,-12.52
2006-03-07 07:00:00,-14.07
2006-03-07 10:00:00,-14.62
2006-03-07 13:00:00,-11.76
2006-03-07 16:00:00,-13.12
2006-03-07 19:00:00,-15.64
2006-03-07 22:00:00,-14.70
2006-03-08 01:00:00,-16.30
2006-03-08 04:00:00,-14.97
2006-03-08 07:00:00,-17.31
2006-03-08 10:00:00,-11.55
2006-03-08 13:00:00,-11.39
2006-03-08 16:00:00,-12.05
2006-03-08 19:00:00,-16.70
2006-03-08 22:00:00,-13.17
2006-03-09 01:00:00,-13.28
2006-03-09 04:00:00,-14.38
2006-03-09 07:00:00,-12.46
2006-03-09 10:00:00,-9.83
2006-03-09 13:00:00,-7.34
2006-03-09 16:00:00,-9.69
2006-03-09 19:00:00,-10.82
2006-03-09 22:00:00,-11.22
2006-03-10 01:00:00,-11.93
2006-03-10 04:00:00,-10.39
2006-03-10 07:00:00,-8.75
2006-03-10 10:00:00,-8.63
2006-03-10 13:00:00,-6.01
2006-03-10 16:00:00,-6.06
2006-03-10 19:00:00,-5.01
2006-03-10 22:00:00,-3.98
2006-03-11 01:00:00,-4.64
2006-03-11 04:00:00,-5.63
2006-03-11 07:00:00,-6.59
2006-03-11 10:00:00,-5.24
2006-03-11 13:00:00,-5.28
2006-03-11 16:00:00,-5.68
2006-03-11 19:00:00,-5.76
2006-03-11 22:00:00,-4.93
2006-03-12 01:00:00,-5.01
2006-03-12 04:00:00,-4.84
2006-03-12 07:00:00,-5.16
2006-03-12 10:00:00,-4.10
2006-03-12 13:00:00,-3.15
2006-03-12 16:00:00,-7.59
2006-03-12 19:00:00,-8.46
2006-03-12 22:00:00,-9.33
2006-03-13 01:00:00,-3.23
2006-03-13 04:00:00,-7.48
2006-03-13 07:00:00,-6.25
2006-03-13 10:00:00,-2.71
2006-03-13 13:00:00,-1.16
2006-03-13 16:00:00,0.28
2006-03-13 19:00:00,0.45
2006-03-13 22:00:00,0.41
2006-03-14 01:00:00,-0.29
2006-03-14 04:00:00,0.83
2006-03-14 07:00:00,-2.70
2006-03-14 10:00:00,-1.70
2006-03-14 13:00:00,-0.35
2006-03-14 16:00:00,-2.19
2006-03-14 19:00:00,-1.00
2006-03-14 22:00:00,-3.77
2006-03-15 01:00:00,-5.42
2006-03-15 04:00:00,-2.32
2006-03-15 07:00:00,-1.83
2006-03-15 10:00:00,-1.26
2006-03-15 13:00:00,-1.53
2006-03-15 16:00:00,-1.99
2006-03-15 19:00:00,-0.76
2006-03-15 22:00:00,-1.12
2006-03-16 01:00:00,-0.83
2006-03-16 04:00:00,-1.66
2006-03-16 07:00:00,-1.66
2006-03-16 10:00:00,-1.21
2006-03-16 13:00:00,-0.82
2006-03-16 16:00:00,-0.26
2006-03-16 19:00:00,-0.79
2006-03-16 22:00:00,-0.23
2006-03-17 01:00:00,-0.79
2006-03-17 04:00:00,-0.54
2006-03-17 07:00:00,0.28
2006-03-17 10:00:00,0.45
2006-03-17 13:00:00,0.17
2006-03-17 16:00:00,-0.13
2006-03-17 19:00:00,-0.54
2006-03-17 22:00:00,-0.94
2006-03-18 01:00:00,-0.28
2006-03-18 04:00:00,-1.79
2006-03-18 07:00:00,-1.91
2006-03-18 10:00:00,-5.58
2006-03-18 13:00:00,-7.09
2006-03-18 16:00:00,-8.48
2006-03-18 19:00:00,-8.28
2006-03-18 22:00:00,-10.80
2006-03-19 01:00:00,-9.95
2006-03-19 04:00:00,-11.30
2006-03-19 07:00:00,-10.59
2006-03-19 10:00:00,-9.97
2006-03-19 13:00:00,-9.96
2006-03-19 16:00:00,-11.60
2006-03-19 19:00:00,-12.37
2006-03-19 22:00:00,-14.53
2006-03-20 01:00:00,-12.99
2006-03-20 04:00:00,-12.41
2006-03-20 07:00:00,-14.57
2006-03-20 10:00:00,-13.19
2006-03-20 13:00:00,-13.40
2006-03-20 16:00:00,-15.75
2006-03-20 19:00:00,-15.75
2006-03-20 22:00:00,-17.37
2006-03-21 01:00:00,-17.69
2006-03-21 04:00:00,-18.24
2006-03-21 07:00:00,-17.12
2006-03-21 10:00:00,-12.42
2006-03-21 13:00:00,-12.32
2006-03-21 16:00:00,-13.05
2006-03-21 19:00:00,-13.75
2006-03-21 22:00:00,-13.72
2006-03-22 01:00:00,-14.44
2006-03-22 04:00:00,-16.67
2006-03-22 07:00:00,-16.59
2006-03-22 10:00:00,-12.42
2006-03-22 13:00:00,-11.49
2006-03-22 16:00:00,-12.89
2006-03-22 19:00:00,-13.57
2006-03-22 22:00:00,-12.99
2006-03-23 01:00:00,-11.43
2006-03-23 04:00:00,-11.42
2006-03-23 07:00:00,-11.05
2006-03-23 10:00:00,-10.33
2006-03-23 13:00:00,-9.73
2006-03-23 16:00:00,-9.36
2006-03-23 19:00:00,-9.27
2006-03-23 22:00:00,-9.32
2006-03-24 01:00:00,-8.92
2006-03-24 04:00:00,-8.78
2006-03-24 07:00:00,-8.39
2006-03-24 10:00:00,-7.76
2006-03-24 13:00:00,-7.38
2006-03-24 16:00:00,-6.65
2006-03-24 19:00:00,-6.34
2006-03-24 22:00:00,-6.59
2006-03-25 01:00:00,-7.70
2006-03-25 04:00:00,-7.89
2006-03-25 07:00:00,-9.44
2006-03-25 10:00:00,-8.70
2006-03-25 13:00:00,-8.95
2006-03-25 16:00:00,-12.67
2006-03-25 19:00:00,-13.08
2006-03-25 22:00:00,-10.18
2006-03-26 01:00:00,-12.97
2006-03-26 04:00:00,-12.74
2006-03-26 07:00:00,-13.36
2006-03-26 10:00:00,-11.01
2006-03-26 13:00:00,-11.48
2006-03-26 16:00:00,-14.62
2006-03-26 19:00:00,-13.85
2006-03-26 22:00:00,-14.56
2006-03-27 01:00:00,-13.65
2006-03-27 04:00:00,-13.74
2006-03-27 07:00:00,-12.70
2006-03-27 10:00:00,-11.49
2006-03-27 13:00:00,-11.66
2006-03-27 16:00:00,-12.13
2006-03-27 19:00:00,-13.02
2006-03-27 22:00:00,-13.69
2006-03-28 01:00:00,-13.57
2006-03-28 04:00:00,-13.08
2006-03-28 07:00:00,-12.23
2006-03-28 10:00:00,-9.87
2006-03-28 13:00:00,-9.78
2006-03-28 16:00:00,-13.93
2006-03-28 19:00:00,-14.65
2006-03-28 22:00:00,-13.74
2006-03-29 01:00:00,-14.11
2006-03-29 04:00:00,-18.82
2006-03-29 07:00:00,-17.16
2006-03-29 10:00:00,-12.51
2006-03-29 13:00:00,-11.35
2006-03-29 16:00:00,-13.56
2006-03-29 19:00:00,-15.06
2006-03-29 22:00:00,-15.55
2006-03-30 01:00:00,-14.97
2006-03-30 04:00:00,-17.91
2006-03-30 07:00:00,-14.54
2006-03-30 10:00:00,-13.82
2006-03-30 13:00:00,-14.81
2006-03-30 16:00:00,-16.00
2006-03-30 19:00:00,-17.54
2006-03-30 22:00:00,-17.95
2006-03-31 01:00:00,-18.20
2006-03-31 04:00:00,-20.30
2006-03-31 07:00:00,-17.60
2006-03-31 10:00:00,-14.65
2006-03-31 13:00:00,-14.96
2006-03-31 16:00:00,-15.51
2006-03-31 19:00:00,-17.14
2006-03-31 22:00:00,-16.96
2006-04-01 01:00:00,-15.82
2006-04-01 04:00:00,-14.29
2006-04-01 07:00:00,-16.87
2006-04-01 10:00:00,-14.89
2006-04-01 13:00:00,-12.00
2006-04-01 16:00:00,-11.59
2006-04-01 19:00:00,-15.52
2006-04-01 22:00:00,-11.71
2006-04-02 01:00:00,-12.02
2006-04-02 04:00:00,-10.10
2006-04-02 07:00:00,-11.55
2006-04-02 10:00:00,-10.15
2006-04-02 13:00:00,-7.65
2006-04-02 16:00:00,-6.57
2006-04-02 19:00:00,-6.50
2006-04-02 22:00:00,-6.49
2006-04-03 01:00:00,-10.85
2006-04-03 04:00:00,-10.53
2006-04-03 07:00:00,-11.30
2006-04-03 10:00:00,-7.53
2006-04-03 13:00:00,-3.69
2006-04-03 16:00:00,-8.81
2006-04-03 19:00:00,-10.32
2006-04-03 22:00:00,-10.45
2006-04-04 01:00:00,-10.90
2006-04-04 04:00:00,-9.62
2006-04-04 07:00:00,-10.06
2006-04-04 10:00:00,-5.01
2006-04-04 13:00:00,-6.06
2006-04-04 16:00:00,-9.17
2006-04-04 19:00:00,-9.32
2006-04-04 22:00:00,-10.96
2006-04-05 01:00:00,-11.74
2006-04-05 04:00:00,-12.65
2006-04-05 07:00:00,-13.78
2006-04-05 10:00:00,-9.49
2006-04-05 13:00:00,-6.82
2006-04-05 16:00:00,-10.70
2006-04-05 19:00:00,-12.37
2006-04-05 22:00:00,-10.37
2006-04-06 01:00:00,-9.56
2006-04-06 04:00:00,-9.09
2006-04-06 07:00:00,-7.78
2006-04-06 10:00:00,-6.09
2006-04-06 13:00:00,-5.31
2006-04-06 16:00:00,-6.65
2006-04-06 19:00:00,-6.50
2006-04-06 22:00:00,-6.54
2006-04-07 01:00:00,-6.96
2006-04-07 04:00:00,-7.11
2006-04-07 07:00:00,-7.50
2006-04-07 10:00:00,-6.26
2006-04-07 13:00:00,-5.80
2006-04-07 16:00:00,-5.18
2006-04-07 19:00:00,-5.78
2006-04-07 22:00:00,-6.62
2006-04-08 01:00:00,-6.96
2006-04-08 04:00:00,-6.92
2006-04-08 07:00:00,-5.90
2006-04-08 10:00:00,-1.17
2006-04-08 13:00:00,-3.40
2006-04-08 16:00:00,-9.48
2006-04-08 19:00:00,-8.87
2006-04-08 22:00:00,-10.28
2006-04-09 01:00:00,-9.93
2006-04-09 04:00:00,-7.86
2006-04-09 07:00:00,-5.35
2006-04-09 10:00:00,-5.93
2006-04-09 13:00:00,-3.60
2006-04-09 16:00:00,-4.90
2006-04-09 19:00:00,-6.51
2006-04-09 22:00:00,-6.11
2006-04-10 01:00:00,-6.54
2006-04-10 04:00:00,-7.21
2006-04-10 07:00:00,-7.78
2006-04-10 10:00:00,-3.36
2006-04-10 13:00:00,-0.77
2006-04-10 16:00:00,-4.63
2006-04-10 19:00:00,-5.43
2006-04-10 22:00:00,-9.37
2006-04-11 01:00:00,-11.23
2006-04-11 04:00:00,-9.62
2006-04-11 07:00:00,-9.83
2006-04-11 10:00:00,-6.53
2006-04-11 13:00:00,-3.27
2006-04-11 16:00:00,-7.04
2006-04-11 19:00:00,-7.97
2006-04-11 22:00:00,-7.45
2006-04-12 01:00:00,-10.14
2006-04-12 04:00:00,-8.82
2006-04-12 07:00:00,-9.85
2006-04-12 10:00:00,-3.58
2006-04-12 13:00:00,-3.24
2006-04-12 16:00:00,-4.09
2006-04-12 19:00:00,-3.85
2006-04-12 22:00:00,-4.45
2006-04-13 01:00:00,-4.89
2006-04-13 04:00:00,-5.33
2006-04-13 07:00:00,-4.33
2006-04-13 10:00:00,-3.48
2006-04-13 13:00:00,-4.61
2006-04-13 16:00:00,-4.33
2006-04-13 19:00:00,-3.92
2006-04-13 22:00:00,-4.31
2006-04-14 01:00:00,-4.93
2006-04-14 04:00:00,-5.09
2006-04-14 07:00:00,-4.64
2006-04-14 10:00:00,-3.23
2006-04-14 13:00:00,-3.77
2006-04-14 16:00:00,-3.53
2006-04-14 19:00:00,-3.77
2006-04-14 22:00:00,-4.27
2006-04-15 01:00:00,-3.98
2006-04-15 04:00:00,-3.85
2006-04-15 07:00:00,-3.48
2006-04-15 10:00:00,-3.05
2006-04-15 13:00:00,-2.53
2006-04-15 16:00:00,-2.74
2006-04-15 19:00:00,-3.70
2006-04-15 22:00:00,-4.02
2006-04-16 01:00:00,-4.68
2006-04-16 04:00:00,-5.97
2006-04-16 07:00:00,-3.97
2006-04-16 10:00:00,-5.68
2006-04-16 13:00:00,-3.06
2006-04-16 16:00:00,-6.75
2006-04-16 19:00:00,-8.16
2006-04-16 22:00:00,-6.33
2006-04-17 01:00:00,-8.69
2006-04-17 04:00:00,-5.50
2006-04-17 07:00:00,-4.30
2006-04-17 10:00:00,-3.76
2006-04-17 13:00:00,-3.93
2006-04-17 16:00:00,-4.00
2006-04-17 19:00:00,-3.08
2006-04-17 22:00:00,-3.94
2006-04-18 01:00:00,-4.51
2006-04-18 04:00:00,-4.27
2006-04-18 07:00:00,-4.27
2006-04-18 10:00:00,-4.55
2006-04-18 13:00:00,-3.08
2006-04-18 16:00:00,-3.54
2006-04-18 19:00:00,-3.84
2006-04-18 22:00:00,-4.39
2006-04-19 01:00:00,-7.41
2006-04-19 04:00:00,-9.99
2006-04-19 07:00:00,-6.47
2006-04-19 10:00:00,-3.17
2006-04-19 13:00:00,-1.48
2006-04-19 16:00:00,-2.17
2006-04-19 19:00:00,-2.88
2006-04-19 22:00:00,-3.77
2006-04-20 01:00:00,-4.68
2006-04-20 04:00:00,-5.29
2006-04-20 07:00:00,-3.77
2006-04-20 10:00:00,-1.01
2006-04-20 13:00:00,-2.28
2006-04-20 16:00:00,-2.49
2006-04-20 19:00:00,-4.62
2006-04-20 22:00:00,-4.38
2006-04-21 01:00:00,-5.75
2006-04-21 04:00:00,-5.57
2006-04-21 07:00:00,-4.98
2006-04-21 10:00:00,-3.38
2006-04-21 13:00:00,-3.64
2006-04-21 16:00:00,-4.61
2006-04-21 19:00:00,-5.28
2006-04-21 22:00:00,-5.05
2006-04-22 01:00:00,-7.90
2006-04-22 04:00:00,-9.00
2006-04-22 07:00:00,-6.77
2006-04-22 10:00:00,-4.56
2006-04-22 13:00:00,-1.91
2006-04-22 16:00:00,-3.01
2006-04-22 19:00:00,-2.94
2006-04-22 22:00:00,-3.91
2006-04-23 01:00:00,-4.60
2006-04-23 04:00:00,-5.80
2006-04-23 07:00:00,-4.85
2006-04-23 10:00:00,0.57
2006-04-23 13:00:00,-0.87
2006-04-23 16:00:00,1.14
2006-04-23 19:00:00,0.57
2006-04-23 22:00:00,-0.64
2006-04-24 01:00:00,-0.76
2006-04-24 04:00:00,-1.10
2006-04-24 07:00:00,-0.20
2006-04-24 10:00:00,-0.06
2006-04-24 13:00:00,2.83
2006-04-24 16:00:00,0.39
2006-04-24 19:00:00,-1.79